Miscellaneous Local Product
Issued by NWS North Platte, NE

Home | Current Version | Previous Version | Text Only | Print | Product List | Glossary On
Versions: 1 2 3 4 5 6 7 8 9 10 11 12 13 14 15 16 17 18 19 20 21 22 23 24 25 26 27 28 29 30 31 32 33 34 35 36 37 38 39 40 41 42 43 44 45 46 47 48 49 50
000
AXUS43 KLBF 241410
MISLBF


WESTERN AND NORTH CENTRAL NEBRASKA HOURLY WEATHER ROUNDUP
NATIONAL WEATHER SERVICE NORTH PLATTE NE
900 AM CDT WED MAY 24 2017

NOTE: "FAIR" INDICATES FEW OR NO CLOUDS BELOW 12,000 FEET WITH NO
SIGNIFICANT WEATHER AND/OR OBSTRUCTIONS TO VISIBILITY.

NOTE: STATIONS NOT REPORTING VARIABLES SUCH AS SKY/WEATHER OR
PRESSURE ARE PROVIDED BY RAWS AND APRS NETWORKS AND ARE NOT UNDER
NATIONAL WEATHER SERVICE QUALITY CONTROL.

...OBSERVATIONS IN AND NEAR THE EASTERN PANHANDLE OF NEBRASKA...

CITY           SKY/WX    TMP DP  RH WIND       PRES   REMARKS
PINE RIDGE     SUNNY     51  39  63 S16       29.77F
GORDON         FAIR      48  38  69 S8        29.79F
CHADRON        SUNNY     52  38  58 S13       29.74F
ALLIANCE       SUNNY     49  39  68 S14       29.78F
SIDNEY         SUNNY     49  39  68 S10       29.82F
CRESCENT LAKE    N/A     50  37  62 S8          N/A
$$

...OBSERVATIONS IN NORTHERN NEBRASKA AND FAR SOUTHERN SOUTH DAKOTA...

CITY           SKY/WX    TMP DP  RH WIND       PRES   REMARKS
WINNER         FAIR      50  42  74 CALM      29.81F
VALENTINE      SUNNY     47  38  71 VRB3      29.81F
THEDFORD       SUNNY     49  42  76 NW3       29.84F
AINSWORTH      SUNNY     47  42  80 CALM      29.83S
O`NEILL        SUNNY     50  43  76 N5        29.83S
ORD            SUNNY     50  42  74 NW6       29.82F
BROKEN BOW     SUNNY     49  41  74 N6        29.83F
VALENTINE NWR    N/A     45  40  82 W3          N/A
HALSEY           N/A     47  39  74 W3          N/A
BUTTE            N/A     49  43  81 CALM        N/A
CHAMBERS         N/A     57  43  60 CALM        N/A
EWING            N/A     51  45  81 N3          N/A
$$

...OBSERVATIONS IN SOUTHWEST NEBRASKA AND FAR NORTHEAST COLORADO...

CITY           SKY/WX    TMP DP  RH WIND       PRES   REMARKS
WRAY           FAIR      50  39  66 SE8       29.85F
IMPERIAL       SUNNY     49  38  65 S5        29.85F
OGALLALA       SUNNY     47  41  77 CALM      29.85F
NORTH PLATTE   SUNNY     48  42  80 W7        29.86F
MCCOOK         SUNNY     48  40  73 W5        29.87F
LEXINGTON      SUNNY     48  42  80 W8        29.86S
STAPLETON        N/A     49  43  79 CALM        N/A
GOTHENBURG       N/A     41  36  81 W6          N/A
CALLAWAY         N/A     42  39  90 NW8         N/A
$$

...OBSERVATIONS IN CENTRAL LINCOLN COUNTY AREA...

CITY           SKY/WX    TMP DP  RH WIND       PRES   REMARKS
N.P. AIRPORT   SUNNY     48  42  80 W7        29.86F
N.P. DOWNTOWN    N/A     46  40  79 W3          N/A
N.P. SOUTHEAST   N/A     47  40  78 CALM        N/A
N.P. HILLCREST   N/A     45  39  80 W3          N/A
$$

...SOME OBSERVATIONS FROM AROUND THE REGION...

CITY           SKY/WX    TMP DP  RH WIND       PRES   REMARKS
DENVER         MOSUNNY   57  37  47 VRB3      29.83F
LIMON          SUNNY     51  39  63 SE3       29.87F
ASPEN          CLOUDY    44  30  57 CALM      30.09S
LARAMIE        SUNNY     55  36  48 W22G30    29.90F
CASPER         SUNNY     57  40  52 SW21G26   29.76F
CHEYENNE       SUNNY     58  38  47 SW10      29.82F
SCOTTSBLUFF    SUNNY     48  39  71 E13       29.77F
GRAND ISLAND   SUNNY     51  43  74 N14       29.83F
OMAHA          PTSUNNY   54  47  77 N15       29.77S
SIOUX FALLS    CLOUDY    50  47  89 NE10      29.81F
PIERRE         SUNNY     47  39  74 CALM      29.79F
RAPID CITY     SUNNY     51  39  63 S16       29.73F
BISMARCK       SUNNY     51  43  74 SE3       29.76F
KANSAS CITY    LGT RAIN  52  49  89 NW10G21   29.71S
HILL CITY      SUNNY     51  42  71 NW9       29.88F
WICHITA        MOSUNNY   54  45  71 N16       29.82F
DODGE CITY     SUNNY     52  41  66 N12       29.88F
OKLAHOMA CITY  SUNNY     57  43  59 N15       29.85S
DALLAS         SUNNY     64  48  56 NW10      29.85R
AMARILLO       SUNNY     61  37  41 W8        29.94S
$$




USA.gov is the U.S. government's official web portal to all federal, state and local government web resources and services.